Regional Weather Roundup
Issued by NWS Sterling, VA

Home | Current Version | Previous Version | Graphics & Text | Print | Product List | Glossary On
Versions: 1 2 3 4 5 6 7 8 9 10 11 12 13 14 15 16 17 18 19 20 21 22 23 24 25 26 27 28 29 30 31 32 33 34 35 36 37 38 39 40 41 42 43 44 45 46 47 48 49 50
567
ASUS41 KLWX 231411
RWRLWX

REGIONAL WEATHER ROUNDUP
NATIONAL WEATHER SERVICE BALTIMORE MD/WASHINGTON DC
1000 AM EDT MON OCT 23 2017

Note: "FAIR" indicates few or no clouds below 12,000 feet
with no significant weather and/or obstructions to visibility.
 TC=TEMPERATURE CELSIUS

 * =Non NWS site. Station does not report precipitation (e.g. rain,
    snow, etc.), thunder, or fog.

DCZ001-MDZ009-015-VAZ040>042-051-053>054-231500-
WASHINGTON METRO

CITY           SKY/WX    TMP DP  RH WIND       PRES   REMARKS
WASHINGTON NAT CLOUDY    66  65  96 S6        30.22F
DULLES         CLOUDY    64  62  93 SE7       30.20F
ANDREWS AFB    CLOUDY    64  64 100 SE7       30.21F
FT BELVOIR     CLOUDY    63  63 100 SE6         N/A
QUANTICO       CLOUDY    64  64 100 S6        30.21F
COLLEGE PARK*  CLOUDY    64  63  97 SE3       30.21F
LEESBURG*      CLOUDY    61  61 100 S9        30.21F
MANASSAS*      CLOUDY    63  61  93 S5        30.21F
GAITHERSBURG*  CLOUDY    63  61  93 SE6       30.22F

$$

MDZ006>007-011-014-231500-
BALTIMORE METRO

CITY           SKY/WX    TMP DP  RH WIND       PRES   REMARKS
BWI AIRPORT    PTSUNNY   67  65  93 VRB6      30.22S
MD SCIENCE CTR   N/A     66  65  96 MISG      30.23F
MARTIN STATE   CLOUDY    64  64 100 E3        30.25F FOG
ANNAPOLIS      PTSUNNY   67  66  97 SE9       30.22F
FORT MEADE*    CLOUDY    64  63  94 SE5       30.24F

$$

MDZ012-015-019>023-231500-
MARYLAND EASTERN SHORE

CITY           SKY/WX    TMP DP  RH WIND       PRES   REMARKS
OCEAN CITY     CLOUDY    70  68  93 SE8       30.25F
SALISBURY      CLOUDY    70  68  93 SE7       30.23F
CAMBRIDGE*     MOSUNNY   68  66  94 SE9       30.23F
EASTON*        PTSUNNY   66  64  94 SE8       30.26F

$$

MDZ017>025-231500-
SOUTHERN MARYLAND

CITY           SKY/WX    TMP DP  RH WIND       PRES   REMARKS
PATUXENT RIVER CLOUDY    69  67  93 SE9G17    30.21F
ST INIGOES     CLOUDY    72  67  84 E8        30.21F
LEONARDTOWN*   NOT AVBL

$$

MDZ003>005-231500-
NORTH CENTRAL MARYLAND

CITY           SKY/WX    TMP DP  RH WIND       PRES   REMARKS
FREDERICK*     CLOUDY    63  63 100 CALM      30.23F FOG
HAGERSTOWN APT PTSUNNY   65  60  84 S12       30.19F
WESTMINSTER*   CLOUDY    64  63  94 SE12      30.22F

$$

MDZ501>502-231500-
WESTERN MARYLAND

CITY           SKY/WX    TMP DP  RH WIND       PRES   REMARKS
OAKLAND*       CLOUDY    54  52  94 SE18G31   30.10F
CUMBERLAND*    CLOUDY    61  57  88 CALM      30.19F

$$

VAZ025>031-231500-
SHENANDOAH VALLEY

CITY           SKY/WX    TMP DP  RH WIND       PRES   REMARKS
WINCHESTER*    CLOUDY    61  59  94 E5        30.18F
FRONT ROYAL*   CLOUDY    64  59  82 E6        30.16F
LURAY*         CLOUDY    61  59  94 CALM      30.18F
NEW MARKET*    CLOUDY    58  54  86 CALM      30.16F
STAUNTON*      PTSUNNY   65  57  74 S8        30.18F
WAYNESBORO*    PTSUNNY   61  59  92 E10       30.17F

$$

WVZ021-048>050-054>055-231500-
EASTERN WEST VIRGINIA PANHANDLE

CITY           SKY/WX    TMP DP  RH WIND       PRES   REMARKS
MARTINSBURG    CLOUDY    62  59  90 SE9       30.18F
PETERSBURG*    CLOUDY    55  52  90 CALM      30.13F

$$

VAZ036>039-050-231500-
CENTRAL FOOTHILLS

CITY           SKY/WX    TMP DP  RH WIND       PRES   REMARKS
CHARLOTTESVILL PTSUNNY   66  60  81 SE3       30.19F
CULPEPER*      CLOUDY    61  59  94 CALM      30.20F FOG
ORANGE*        CLOUDY    59  59 100 E5        30.20F
GORDONSVILLE*  FOG       60  60 100 CALM      30.19F VSB 3/4
WARRENTON*     CLOUDY    63  59  85 SE3       30.19F

$$

VAZ055>057-231500-
NORTH AND CENTRAL PIEDMONT

CITY           SKY/WX    TMP DP  RH WIND       PRES   REMARKS
FREDERICKSBRG* CLOUDY    61  61 100 E3        30.19F FOG
STAFFORD*      CLOUDY    61  61 100 CALM      30.24F FOG

$$

NCZ024-NYZ072-PAZ021-071-VAZ022-071-231500-
OTHER REGIONAL OBSERVATIONS

CITY           SKY/WX    TMP DP  RH WIND       PRES   REMARKS
NEW YORK CITY  PTSUNNY   68  62  81 S7        30.31F
PHILADELPHIA   CLOUDY    69  62  78 SE7       30.26F
PITTSBURGH     CLOUDY    60  57  89 SE8       30.03F
ROANOKE        LGT RAIN  63  59  87 SE8       30.14F
RICHMOND       CLOUDY    64  64 100 SE7       30.19F
RALEIGH        CLOUDY    67  63  87 E7        30.15F

$$

ANZ530>537-231500-
MARINE OBSERVATIONS

STATION/POSITION TIME  TEMP    WIND        PRES
                       AIR SEA DIR/SP/G
                 (UTC) (F)     (DEG/KT/KT) (MB)
THOMAS PT LIGHT  1400   66 68  130/  5/  5   N/A
BALT KEY BRIDGE  1348   64     110/  7/  8 1023.4F
COVE POINT       1348   68     170/ 10/ 12 1023.9F
LEWISETTA        1336   69 67  140/  7/  9 1023.0F
SOLOMONS ISLAND  1348   69 69  130/  9/ 12 1022.7F
PINEY POINT      1348          150/ 11/ 14   N/A

$$





USA.gov is the U.S. government's official web portal to all federal, state and local government web resources and services.